Year,Month,Day,Hour,Minute,Value (Times are PST for temperature in C)
2007,06,27,00,00,14.80
2007,06,27,00,01,14.80
2007,06,27,00,02,14.80
2007,06,27,00,03,14.80
2007,06,27,00,04,14.80
2007,06,27,00,05,14.70
2007,06,27,00,06,14.70
2007,06,27,00,07,14.70
2007,06,27,00,08,14.70
2007,06,27,00,09,14.70
2007,06,27,00,10,14.70
2007,06,27,00,11,14.70
2007,06,27,00,12,14.70
2007,06,27,00,13,14.60
2007,06,27,00,14,14.60
2007,06,27,00,15,14.60
2007,06,27,00,16,14.60
2007,06,27,00,17,14.60
2007,06,27,00,18,14.60
2007,06,27,00,19,14.50
2007,06,27,00,20,14.50
2007,06,27,00,21,14.50
2007,06,27,00,22,14.50
2007,06,27,00,23,14.40
2007,06,27,00,24,14.30
2007,06,27,00,25,14.30
2007,06,27,00,26,14.30
2007,06,27,00,27,14.20
2007,06,27,00,28,14.20
2007,06,27,00,29,14.10
2007,06,27,00,30,14.10
2007,06,27,00,31,14.00
2007,06,27,00,32,14.00
2007,06,27,00,33,13.90
2007,06,27,00,34,13.90
2007,06,27,00,35,13.80
2007,06,27,00,36,13.80
2007,06,27,00,37,13.80
2007,06,27,00,38,13.80
2007,06,27,00,39,13.80
2007,06,27,00,40,13.70
2007,06,27,00,41,13.70
2007,06,27,00,42,13.80
2007,06,27,00,43,13.80
2007,06,27,00,44,13.80
2007,06,27,00,45,13.80
2007,06,27,00,46,13.80
2007,06,27,00,47,13.70
2007,06,27,00,48,13.70
2007,06,27,00,49,13.70
2007,06,27,00,50,13.70
2007,06,27,00,51,13.70
2007,06,27,00,52,13.70
2007,06,27,00,53,13.70
2007,06,27,00,54,13.70
2007,06,27,00,55,13.70
2007,06,27,00,56,13.60
2007,06,27,00,57,13.60
2007,06,27,00,58,13.60
2007,06,27,00,59,13.60
2007,06,27,01,00,13.60
2007,06,27,01,01,13.60
2007,06,27,01,02,13.50
2007,06,27,01,03,13.50
2007,06,27,01,04,13.50
2007,06,27,01,05,13.50
2007,06,27,01,06,13.50
2007,06,27,01,07,13.40
2007,06,27,01,08,13.30
2007,06,27,01,09,13.30
2007,06,27,01,10,13.30
2007,06,27,01,11,13.30
2007,06,27,01,12,13.30
2007,06,27,01,13,13.30
2007,06,27,01,14,13.30
2007,06,27,01,15,13.30
2007,06,27,01,16,13.30
2007,06,27,01,17,13.20
2007,06,27,01,18,13.20
2007,06,27,01,19,13.20
2007,06,27,01,20,13.20
2007,06,27,01,21,13.20
2007,06,27,01,22,13.20
2007,06,27,01,23,13.20
2007,06,27,01,24,13.10
2007,06,27,01,25,13.10
2007,06,27,01,26,13.10
2007,06,27,01,27,13.10
2007,06,27,01,28,13.10
2007,06,27,01,29,13.10
2007,06,27,01,30,13.10
2007,06,27,01,31,13.10
2007,06,27,01,32,13.10
2007,06,27,01,33,13.10
2007,06,27,01,34,13.00
2007,06,27,01,35,13.00
2007,06,27,01,36,12.90
2007,06,27,01,37,12.90
2007,06,27,01,38,12.90
2007,06,27,01,39,12.80
2007,06,27,01,40,12.80
2007,06,27,01,41,12.80
2007,06,27,01,42,12.70
2007,06,27,01,43,12.70
2007,06,27,01,44,12.70
2007,06,27,01,45,12.70
2007,06,27,01,46,12.60
2007,06,27,01,47,12.60
2007,06,27,01,48,12.50
2007,06,27,01,49,12.50
2007,06,27,01,50,12.50
2007,06,27,01,51,12.40
2007,06,27,01,52,12.40
2007,06,27,01,53,12.30
2007,06,27,01,54,12.30
2007,06,27,01,55,12.30
2007,06,27,01,56,12.30
2007,06,27,01,57,12.30
2007,06,27,01,58,12.30
2007,06,27,01,59,12.30
2007,06,27,02,00,12.20
2007,06,27,02,01,12.20
2007,06,27,02,02,12.20
2007,06,27,02,03,12.20
2007,06,27,02,04,12.20
2007,06,27,02,05,12.20
2007,06,27,02,06,12.20
2007,06,27,02,07,12.10
2007,06,27,02,08,12.10
2007,06,27,02,09,12.10
2007,06,27,02,10,12.10
2007,06,27,02,11,12.00
2007,06,27,02,12,12.00
2007,06,27,02,13,12.00
2007,06,27,02,14,12.00
2007,06,27,02,15,12.00
2007,06,27,02,16,12.00
2007,06,27,02,17,12.00
2007,06,27,02,18,11.90
2007,06,27,02,19,11.90
2007,06,27,02,20,11.80
2007,06,27,02,21,11.80
2007,06,27,02,22,11.80
2007,06,27,02,23,11.80
2007,06,27,02,24,11.70
2007,06,27,02,25,11.70
2007,06,27,02,26,11.70
2007,06,27,02,27,11.60
2007,06,27,02,28,11.60
2007,06,27,02,29,11.60
2007,06,27,02,30,11.60
2007,06,27,02,31,11.60
2007,06,27,02,32,11.60
2007,06,27,02,33,11.60
2007,06,27,02,34,11.60
2007,06,27,02,35,11.60
2007,06,27,02,36,11.60
2007,06,27,02,37,11.60
2007,06,27,02,38,11.60
2007,06,27,02,39,11.60
2007,06,27,02,40,11.60
2007,06,27,02,41,11.60
2007,06,27,02,42,11.60
2007,06,27,02,43,11.60
2007,06,27,02,44,11.40
2007,06,27,02,45,11.40
2007,06,27,02,46,11.40
2007,06,27,02,47,11.40
2007,06,27,02,48,11.40
2007,06,27,02,49,11.40
2007,06,27,02,50,11.30
2007,06,27,02,51,11.30
2007,06,27,02,52,11.30
2007,06,27,02,53,11.20
2007,06,27,02,54,11.20
2007,06,27,02,55,11.20
2007,06,27,02,56,11.20
2007,06,27,02,57,11.10
2007,06,27,02,58,11.10
2007,06,27,02,59,11.10
2007,06,27,03,00,11.10
2007,06,27,03,01,11.10
2007,06,27,03,02,11.10
2007,06,27,03,03,11.10
2007,06,27,03,04,11.10
2007,06,27,03,05,11.10
2007,06,27,03,06,11.10
2007,06,27,03,07,11.10
2007,06,27,03,08,11.10
2007,06,27,03,09,11.10
2007,06,27,03,10,10.90
2007,06,27,03,11,10.90
2007,06,27,03,12,10.90
2007,06,27,03,13,10.90
2007,06,27,03,14,10.90
2007,06,27,03,15,10.90
2007,06,27,03,16,10.90
2007,06,27,03,17,10.90
2007,06,27,03,18,10.90
2007,06,27,03,19,10.90
2007,06,27,03,20,10.90
2007,06,27,03,21,10.80
2007,06,27,03,22,10.80
2007,06,27,03,23,10.70
2007,06,27,03,24,10.70
2007,06,27,03,25,10.70
2007,06,27,03,26,10.70
2007,06,27,03,27,10.70
2007,06,27,03,28,10.70
2007,06,27,03,29,10.60
2007,06,27,03,30,10.60
2007,06,27,03,31,10.60
2007,06,27,03,32,10.60
2007,06,27,03,33,10.60
2007,06,27,03,34,10.60
2007,06,27,03,35,10.60
2007,06,27,03,36,10.60
2007,06,27,03,37,10.60
2007,06,27,03,38,10.60
2007,06,27,03,39,10.60
2007,06,27,03,40,10.60
2007,06,27,03,41,10.60
2007,06,27,03,42,10.60
2007,06,27,03,43,10.50
2007,06,27,03,44,10.40
2007,06,27,03,45,10.40
2007,06,27,03,46,10.40
2007,06,27,03,47,10.40
2007,06,27,03,48,10.40
2007,06,27,03,49,10.40
2007,06,27,03,50,10.40
2007,06,27,03,51,10.40
2007,06,27,03,52,10.40
2007,06,27,03,53,10.40
2007,06,27,03,54,10.40
2007,06,27,03,55,10.40
2007,06,27,03,56,10.40
2007,06,27,03,57,10.40
2007,06,27,03,58,10.40
2007,06,27,03,59,10.40
2007,06,27,04,00,10.40
2007,06,27,04,01,10.40
2007,06,27,04,02,10.30
2007,06,27,04,03,10.30
2007,06,27,04,04,10.30
2007,06,27,04,05,10.30
2007,06,27,04,06,10.30
2007,06,27,04,07,10.30
2007,06,27,04,08,10.20
2007,06,27,04,09,10.20
2007,06,27,04,10,10.20
2007,06,27,04,11,10.20
2007,06,27,04,12,10.20
2007,06,27,04,13,10.20
2007,06,27,04,14,10.20
2007,06,27,04,15,10.20
2007,06,27,04,16,10.20
2007,06,27,04,17,10.20
2007,06,27,04,18,10.20
2007,06,27,04,19,10.10
2007,06,27,04,20,10.10
2007,06,27,04,21,10.10
2007,06,27,04,22,10.10
2007,06,27,04,23,10.10
2007,06,27,04,24,10.10
2007,06,27,04,25,10.10
2007,06,27,04,26,10.10
2007,06,27,04,27,10.10
2007,06,27,04,28,10.10
2007,06,27,04,29,10.10
2007,06,27,04,30,10.10
2007,06,27,04,31,10.10
2007,06,27,04,32,10.10
2007,06,27,04,33,10.10
2007,06,27,04,34,10.10
2007,06,27,04,35,10.10
2007,06,27,04,36,10.10
2007,06,27,04,37,10.10
2007,06,27,04,38,10.10
2007,06,27,04,39,10.10
2007,06,27,04,40,10.10
2007,06,27,04,41,10.10
2007,06,27,04,42,10.00
2007,06,27,04,43,9.90
2007,06,27,04,44,9.90
2007,06,27,04,45,9.90
2007,06,27,04,46,9.90
2007,06,27,04,47,9.90
2007,06,27,04,48,9.90
2007,06,27,04,49,9.90
2007,06,27,04,50,9.90
2007,06,27,04,51,9.90
2007,06,27,04,52,9.90
2007,06,27,04,53,9.90
2007,06,27,04,54,9.90
2007,06,27,04,55,9.90
2007,06,27,04,56,9.90
2007,06,27,04,57,9.90
2007,06,27,04,58,9.90
2007,06,27,04,59,9.90
2007,06,27,05,00,9.90
2007,06,27,05,01,9.80
2007,06,27,05,02,9.80
2007,06,27,05,03,9.80
2007,06,27,05,04,9.80
2007,06,27,05,05,9.80
2007,06,27,05,06,9.80
2007,06,27,05,07,9.80
2007,06,27,05,08,9.80
2007,06,27,05,09,9.80
2007,06,27,05,10,9.80
2007,06,27,05,11,9.80
2007,06,27,05,12,9.90
2007,06,27,05,13,9.90
2007,06,27,05,14,9.90
2007,06,27,05,15,9.90
2007,06,27,05,16,9.90
2007,06,27,05,17,9.90
2007,06,27,05,18,9.90
2007,06,27,05,19,9.90
2007,06,27,05,20,9.90
2007,06,27,05,21,9.90
2007,06,27,05,22,9.90
2007,06,27,05,23,9.90
2007,06,27,05,24,9.90
2007,06,27,05,25,9.80
2007,06,27,05,26,9.80
2007,06,27,05,27,9.80
2007,06,27,05,28,9.80
2007,06,27,05,29,9.80
2007,06,27,05,30,9.80
2007,06,27,05,31,9.80
2007,06,27,05,32,9.80
2007,06,27,05,33,9.80
2007,06,27,05,34,9.80
2007,06,27,05,35,9.90
2007,06,27,05,36,9.90
2007,06,27,05,37,9.90
2007,06,27,05,38,9.90
2007,06,27,05,39,9.90
2007,06,27,05,40,9.90
2007,06,27,05,41,9.90
2007,06,27,05,42,9.90
2007,06,27,05,43,9.80
2007,06,27,05,44,9.80
2007,06,27,05,45,9.80
2007,06,27,05,46,9.80
2007,06,27,05,47,9.80
2007,06,27,05,48,9.80
2007,06,27,05,49,9.80
2007,06,27,05,50,9.80
2007,06,27,05,51,9.80
2007,06,27,05,52,9.80
2007,06,27,05,53,9.80
2007,06,27,05,54,9.80
2007,06,27,05,55,9.80
2007,06,27,05,56,9.90
2007,06,27,05,57,9.90
2007,06,27,05,58,9.90
2007,06,27,05,59,9.90
2007,06,27,06,00,9.90
2007,06,27,06,01,9.90
2007,06,27,06,02,9.90
2007,06,27,06,03,9.90
2007,06,27,06,04,9.90
2007,06,27,06,05,9.90
2007,06,27,06,06,9.90
2007,06,27,06,07,9.90
2007,06,27,06,08,9.90
2007,06,27,06,09,9.90
2007,06,27,06,10,9.90
2007,06,27,06,11,9.90
2007,06,27,06,12,9.90
2007,06,27,06,13,10.00
2007,06,27,06,14,10.10
2007,06,27,06,15,10.10
2007,06,27,06,16,10.10
2007,06,27,06,17,10.10
2007,06,27,06,18,10.10
2007,06,27,06,19,10.10
2007,06,27,06,20,10.10
2007,06,27,06,21,10.10
2007,06,27,06,22,10.20
2007,06,27,06,23,10.20
2007,06,27,06,24,10.20
2007,06,27,06,25,10.20
2007,06,27,06,26,10.20
2007,06,27,06,27,10.20
2007,06,27,06,28,10.20
2007,06,27,06,29,10.30
2007,06,27,06,30,10.30
2007,06,27,06,31,10.30
2007,06,27,06,32,10.30
2007,06,27,06,33,10.40
2007,06,27,06,34,10.40
2007,06,27,06,35,10.40
2007,06,27,06,36,10.40
2007,06,27,06,37,10.40
2007,06,27,06,38,10.40
2007,06,27,06,39,10.40
2007,06,27,06,40,10.40
2007,06,27,06,41,10.40
2007,06,27,06,44,10.60
2007,06,27,06,45,10.60
2007,06,27,06,46,10.60
2007,06,27,06,47,10.60
2007,06,27,06,48,10.60
2007,06,27,06,49,10.60
2007,06,27,06,50,10.60
2007,06,27,06,51,10.70
2007,06,27,06,52,10.70
2007,06,27,06,53,10.70
2007,06,27,06,54,10.70
2007,06,27,06,55,10.70
2007,06,27,06,56,10.70
2007,06,27,06,57,10.80
2007,06,27,06,58,10.80
2007,06,27,06,59,10.80
2007,06,27,07,00,10.90
2007,06,27,07,01,10.90
2007,06,27,07,02,10.90
2007,06,27,07,03,10.90
2007,06,27,07,04,10.90
2007,06,27,07,05,11.00
2007,06,27,07,06,11.10
2007,06,27,07,07,11.10
2007,06,27,07,08,11.10
2007,06,27,07,09,11.10
2007,06,27,07,10,11.10
2007,06,27,07,11,11.20
2007,06,27,07,12,11.20
2007,06,27,07,13,11.20
2007,06,27,07,14,11.20
2007,06,27,07,15,11.30
2007,06,27,07,16,11.30
2007,06,27,07,17,11.30
2007,06,27,07,18,11.40
2007,06,27,07,19,11.40
2007,06,27,07,20,11.40
2007,06,27,07,21,11.40
2007,06,27,07,22,11.40
2007,06,27,07,23,11.40
2007,06,27,07,24,11.40
2007,06,27,07,25,11.40
2007,06,27,07,26,11.60
2007,06,27,07,27,11.60
2007,06,27,07,28,11.60
2007,06,27,07,29,11.60
2007,06,27,07,30,11.60
2007,06,27,07,31,11.60
2007,06,27,07,32,11.70
2007,06,27,07,33,11.70
2007,06,27,07,34,11.80
2007,06,27,07,35,11.80
2007,06,27,07,36,11.80
2007,06,27,07,37,11.80
2007,06,27,07,38,11.90
2007,06,27,07,39,12.00
2007,06,27,07,40,12.00
2007,06,27,07,41,12.10
2007,06,27,07,42,12.10
2007,06,27,07,43,12.20
2007,06,27,07,44,12.20
2007,06,27,07,45,12.30
2007,06,27,07,46,12.30
2007,06,27,07,47,12.30
2007,06,27,07,48,12.40
2007,06,27,07,49,12.40
2007,06,27,07,50,12.50
2007,06,27,07,51,12.60
2007,06,27,07,52,12.60
2007,06,27,07,53,12.70
2007,06,27,07,54,12.80
2007,06,27,07,55,12.80
2007,06,27,07,56,12.80
2007,06,27,07,57,12.90
2007,06,27,07,58,12.90
2007,06,27,07,59,12.90
2007,06,27,08,00,13.00
2007,06,27,08,01,13.00
2007,06,27,08,02,13.10
2007,06,27,08,03,13.10
2007,06,27,08,04,13.20
2007,06,27,08,05,13.30
2007,06,27,08,06,13.30
2007,06,27,08,07,13.30
2007,06,27,08,08,13.30
2007,06,27,08,09,13.40
2007,06,27,08,10,13.40
2007,06,27,08,11,13.50
2007,06,27,08,12,13.50
2007,06,27,08,13,13.60
2007,06,27,08,14,13.60
2007,06,27,08,15,13.70
2007,06,27,08,16,13.70
2007,06,27,08,17,13.70
2007,06,27,08,18,13.80
2007,06,27,08,19,13.80
2007,06,27,08,20,13.80
2007,06,27,08,21,13.90
2007,06,27,08,22,13.90
2007,06,27,08,23,14.00
2007,06,27,08,24,14.00
2007,06,27,08,25,14.10
2007,06,27,08,26,14.20
2007,06,27,08,27,14.20
2007,06,27,08,28,14.20
2007,06,27,08,29,14.20
2007,06,27,08,30,14.30
2007,06,27,08,31,14.30
2007,06,27,08,32,14.40
2007,06,27,08,33,14.50
2007,06,27,08,34,14.50
2007,06,27,08,35,14.60
2007,06,27,08,36,14.70
2007,06,27,08,37,14.70
2007,06,27,08,38,14.80
2007,06,27,08,39,14.80
2007,06,27,08,40,14.90
2007,06,27,08,41,14.90
2007,06,27,08,42,15.00
2007,06,27,08,43,15.00
2007,06,27,08,44,15.10
2007,06,27,08,45,15.10
2007,06,27,08,46,15.10
2007,06,27,08,47,15.20
2007,06,27,08,48,15.20
2007,06,27,08,49,15.20
2007,06,27,08,50,15.30
2007,06,27,08,51,15.30
2007,06,27,08,52,15.30
2007,06,27,08,53,15.30
2007,06,27,08,54,15.40
2007,06,27,08,55,15.40
2007,06,27,08,56,15.50
2007,06,27,08,57,15.50
2007,06,27,08,58,15.50
2007,06,27,08,59,15.60
2007,06,27,09,00,15.60
2007,06,27,09,01,15.60
2007,06,27,09,02,15.60
2007,06,27,09,03,15.60
2007,06,27,09,04,15.70
2007,06,27,09,05,15.70
2007,06,27,09,06,15.80
2007,06,27,09,07,15.80
2007,06,27,09,08,15.80
2007,06,27,09,09,15.80
2007,06,27,09,10,15.80
2007,06,27,09,11,15.80
2007,06,27,09,12,15.80
2007,06,27,09,13,15.90
2007,06,27,09,14,15.90
2007,06,27,09,15,15.90
2007,06,27,09,16,15.90
2007,06,27,09,17,15.90
2007,06,27,09,18,15.90
2007,06,27,09,19,15.90
2007,06,27,09,20,16.00
2007,06,27,09,21,16.10
2007,06,27,09,22,16.10
2007,06,27,09,23,16.10
2007,06,27,09,24,16.10
2007,06,27,09,25,16.10
2007,06,27,09,26,16.10
2007,06,27,09,27,16.10
2007,06,27,09,28,16.10
2007,06,27,09,29,16.10
2007,06,27,09,30,16.10
2007,06,27,09,31,16.10
2007,06,27,09,32,16.10
2007,06,27,09,33,16.10
2007,06,27,09,34,16.10
2007,06,27,09,35,16.10
2007,06,27,09,36,16.10
2007,06,27,09,37,16.10
2007,06,27,09,38,16.10
2007,06,27,09,39,16.10
2007,06,27,09,40,16.10
2007,06,27,09,41,16.10
2007,06,27,09,42,16.10
2007,06,27,09,43,16.10
2007,06,27,09,44,16.10
2007,06,27,09,45,16.10
2007,06,27,09,46,16.10
2007,06,27,09,47,16.10
2007,06,27,09,48,16.10
2007,06,27,09,49,16.10
2007,06,27,09,50,16.10
2007,06,27,09,51,16.10
2007,06,27,09,52,16.10
2007,06,27,09,53,16.20
2007,06,27,09,54,16.20
2007,06,27,09,55,16.20
2007,06,27,09,56,16.30
2007,06,27,09,57,16.30
2007,06,27,09,58,16.30
2007,06,27,09,59,16.40
2007,06,27,10,00,16.40
2007,06,27,10,01,16.40
2007,06,27,10,02,16.40
2007,06,27,10,03,16.50
2007,06,27,10,04,16.60
2007,06,27,10,05,16.60
2007,06,27,10,06,16.60
2007,06,27,10,07,16.70
2007,06,27,10,08,16.70
2007,06,27,10,09,16.70
2007,06,27,10,10,16.70
2007,06,27,10,11,16.70
2007,06,27,10,12,16.80
2007,06,27,10,13,16.80
2007,06,27,10,14,16.80
2007,06,27,10,15,16.80
2007,06,27,10,16,16.90
2007,06,27,10,17,16.90
2007,06,27,10,18,16.90
2007,06,27,10,19,16.90
2007,06,27,10,20,16.90
2007,06,27,10,21,17.00
2007,06,27,10,22,17.00
2007,06,27,10,23,17.00
2007,06,27,10,24,17.10
2007,06,27,10,25,17.10
2007,06,27,10,26,17.10
2007,06,27,10,27,17.20
2007,06,27,10,28,17.20
2007,06,27,10,29,17.30
2007,06,27,10,30,17.30
2007,06,27,10,31,17.30
2007,06,27,10,32,17.30
2007,06,27,10,33,17.30
2007,06,27,10,34,17.30
2007,06,27,10,35,17.30
2007,06,27,10,36,17.30
2007,06,27,10,37,17.30
2007,06,27,10,38,17.30
2007,06,27,10,39,17.30
2007,06,27,10,40,17.30
2007,06,27,10,41,17.30
2007,06,27,10,42,17.30
2007,06,27,10,43,17.30
2007,06,27,10,44,17.30
2007,06,27,10,45,17.40
2007,06,27,10,46,17.40
2007,06,27,10,47,17.40
2007,06,27,10,48,17.40
2007,06,27,10,49,17.40
2007,06,27,10,50,17.50
2007,06,27,10,51,17.60
2007,06,27,10,52,17.60
2007,06,27,10,53,17.60
2007,06,27,10,54,17.70
2007,06,27,10,55,17.70
2007,06,27,10,56,17.70
2007,06,27,10,57,17.80
2007,06,27,10,58,17.90
2007,06,27,10,59,17.90
2007,06,27,11,00,18.00
2007,06,27,11,01,18.10
2007,06,27,11,02,18.20
2007,06,27,11,03,18.20
2007,06,27,11,04,18.20
2007,06,27,11,05,18.30
2007,06,27,11,06,18.30
2007,06,27,11,07,18.40
2007,06,27,11,08,18.50
2007,06,27,11,09,18.50
2007,06,27,11,10,18.60
2007,06,27,11,11,18.60
2007,06,27,11,12,18.60
2007,06,27,11,13,18.60
2007,06,27,11,14,18.70
2007,06,27,11,15,18.70
2007,06,27,11,16,18.70
2007,06,27,11,17,18.80
2007,06,27,11,18,18.80
2007,06,27,11,19,18.80
2007,06,27,11,20,18.80
2007,06,27,11,21,18.80
2007,06,27,11,22,18.90
2007,06,27,11,23,18.90
2007,06,27,11,24,18.90
2007,06,27,11,25,18.90
2007,06,27,11,26,19.00
2007,06,27,11,27,19.10
2007,06,27,11,28,19.00
2007,06,27,11,29,18.90
2007,06,27,11,30,18.90
2007,06,27,11,31,18.90
2007,06,27,11,32,18.90
2007,06,27,11,33,18.90
2007,06,27,11,34,18.90
2007,06,27,11,35,18.90
2007,06,27,11,36,18.90
2007,06,27,11,37,18.90
2007,06,27,11,38,18.90
2007,06,27,11,39,18.90
2007,06,27,11,40,18.90
2007,06,27,11,41,18.90
2007,06,27,11,42,18.90
2007,06,27,11,43,18.90
2007,06,27,11,44,18.90
2007,06,27,11,45,18.90
2007,06,27,11,46,19.00
2007,06,27,11,47,19.10
2007,06,27,11,48,19.10
2007,06,27,11,49,19.10
2007,06,27,11,50,19.10
2007,06,27,11,51,19.10
2007,06,27,11,52,19.10
2007,06,27,11,53,19.10
2007,06,27,11,54,19.10
2007,06,27,11,55,19.10
2007,06,27,11,56,19.10
2007,06,27,11,57,19.10
2007,06,27,11,58,19.10
2007,06,27,11,59,18.90
2007,06,27,12,00,18.90
2007,06,27,12,01,18.90
2007,06,27,12,02,18.90
2007,06,27,12,03,18.90
2007,06,27,12,04,18.90
2007,06,27,12,05,18.80
2007,06,27,12,06,18.80
2007,06,27,12,07,18.80
2007,06,27,12,08,18.80
2007,06,27,12,09,18.90
2007,06,27,12,10,18.90
2007,06,27,12,11,18.90
2007,06,27,12,12,18.90
2007,06,27,12,13,19.00
2007,06,27,12,14,19.10
2007,06,27,12,15,19.10
2007,06,27,12,16,19.10
2007,06,27,12,17,19.20
2007,06,27,12,18,19.40
2007,06,27,12,19,19.50
2007,06,27,12,20,19.60
2007,06,27,12,21,19.70
2007,06,27,12,22,19.80
2007,06,27,12,23,19.90
2007,06,27,12,24,19.90
2007,06,27,12,25,20.10
2007,06,27,12,26,20.10
2007,06,27,12,27,20.10
2007,06,27,12,28,20.20
2007,06,27,12,29,20.10
2007,06,27,12,30,20.10
2007,06,27,12,31,20.10
2007,06,27,12,32,19.90
2007,06,27,12,33,19.90
2007,06,27,12,34,19.90
2007,06,27,12,35,19.90
2007,06,27,12,36,19.90
2007,06,27,12,37,19.90
2007,06,27,12,38,19.90
2007,06,27,12,39,19.90
2007,06,27,12,40,20.00
2007,06,27,12,41,20.10
2007,06,27,12,42,20.20
2007,06,27,12,43,20.20
2007,06,27,12,44,20.20
2007,06,27,12,45,20.30
2007,06,27,12,46,20.40
2007,06,27,12,47,20.40
2007,06,27,12,48,20.50
2007,06,27,12,49,20.50
2007,06,27,12,50,20.50
2007,06,27,12,51,20.50
2007,06,27,12,52,20.50
2007,06,27,12,53,20.60
2007,06,27,12,54,20.60
2007,06,27,12,55,20.60
2007,06,27,12,56,20.70
2007,06,27,12,57,20.80
2007,06,27,12,58,20.90
2007,06,27,12,59,20.90
2007,06,27,13,00,20.90
2007,06,27,13,01,20.90
2007,06,27,13,02,20.90
2007,06,27,13,03,20.90
2007,06,27,13,04,20.80
2007,06,27,13,05,20.80
2007,06,27,13,06,20.80
2007,06,27,13,07,20.70
2007,06,27,13,08,20.70
2007,06,27,13,09,20.60
2007,06,27,13,10,20.60
2007,06,27,13,11,20.60
2007,06,27,13,12,20.60
2007,06,27,13,13,20.50
2007,06,27,13,14,20.50
2007,06,27,13,15,20.50
2007,06,27,13,16,20.50
2007,06,27,13,17,20.50
2007,06,27,13,18,20.50
2007,06,27,13,19,20.40
2007,06,27,13,20,20.30
2007,06,27,13,21,20.30
2007,06,27,13,22,20.30
2007,06,27,13,23,20.30
2007,06,27,13,24,20.20
2007,06,27,13,25,20.20
2007,06,27,13,26,20.30
2007,06,27,13,27,20.40
2007,06,27,13,28,20.40
2007,06,27,13,29,20.30
2007,06,27,13,30,20.30
2007,06,27,13,31,20.30
2007,06,27,13,32,20.30
2007,06,27,13,33,20.30
2007,06,27,13,34,20.30
2007,06,27,13,35,20.30
2007,06,27,13,36,20.40
2007,06,27,13,37,20.40
2007,06,27,13,38,20.40
2007,06,27,13,39,20.50
2007,06,27,13,40,20.50
2007,06,27,13,41,20.50
2007,06,27,13,42,20.50
2007,06,27,13,43,20.40
2007,06,27,13,44,20.50
2007,06,27,13,45,20.50
2007,06,27,13,46,20.50
2007,06,27,13,47,20.50
2007,06,27,13,48,20.50
2007,06,27,13,49,20.50
2007,06,27,13,50,20.50
2007,06,27,13,51,20.50
2007,06,27,13,52,20.50
2007,06,27,13,53,20.60
2007,06,27,13,54,20.60
2007,06,27,13,55,20.70
2007,06,27,13,56,20.80
2007,06,27,13,57,20.80
2007,06,27,13,58,20.80
2007,06,27,13,59,20.80
2007,06,27,14,00,20.70
2007,06,27,14,01,20.70
2007,06,27,14,02,20.60
2007,06,27,14,03,20.50
2007,06,27,14,04,20.50
2007,06,27,14,05,20.40
2007,06,27,14,06,20.40
2007,06,27,14,07,20.40
2007,06,27,14,08,20.40
2007,06,27,14,09,20.40
2007,06,27,14,10,20.40
2007,06,27,14,11,20.40
2007,06,27,14,12,20.40
2007,06,27,14,13,20.40
2007,06,27,14,14,20.40
2007,06,27,14,15,20.40
2007,06,27,14,16,20.40
2007,06,27,14,17,20.40
2007,06,27,14,18,20.30
2007,06,27,14,19,20.30
2007,06,27,14,20,20.30
2007,06,27,14,21,20.20
2007,06,27,14,22,20.20
2007,06,27,14,23,20.20
2007,06,27,14,24,20.20
2007,06,27,14,25,20.20
2007,06,27,14,26,20.20
2007,06,27,14,27,20.20
2007,06,27,14,28,20.20
2007,06,27,14,29,20.20
2007,06,27,14,30,20.20
2007,06,27,14,31,20.30
2007,06,27,14,32,20.40
2007,06,27,14,33,20.40
2007,06,27,14,34,20.40
2007,06,27,14,35,20.40
2007,06,27,14,36,20.40
2007,06,27,14,37,20.40
2007,06,27,14,38,20.30
2007,06,27,14,39,20.30
2007,06,27,14,40,20.30
2007,06,27,14,41,20.20
2007,06,27,14,42,20.20
2007,06,27,14,43,20.20
2007,06,27,14,44,20.30
2007,06,27,14,45,20.30
2007,06,27,14,46,20.40
2007,06,27,14,47,20.40
2007,06,27,14,48,20.40
2007,06,27,14,49,20.40
2007,06,27,14,50,20.50
2007,06,27,14,51,20.50
2007,06,27,14,52,20.60
2007,06,27,14,53,20.60
2007,06,27,14,54,20.50
2007,06,27,14,55,20.50
2007,06,27,14,56,20.50
2007,06,27,14,57,20.40
2007,06,27,14,58,20.40
2007,06,27,14,59,20.40
2007,06,27,15,00,20.40
2007,06,27,15,01,20.50
2007,06,27,15,02,20.50
2007,06,27,15,03,20.50
2007,06,27,15,04,20.60
2007,06,27,15,05,20.70
2007,06,27,15,06,20.80
2007,06,27,15,07,20.90
2007,06,27,15,08,21.00
2007,06,27,15,09,21.00
2007,06,27,15,10,21.00
2007,06,27,15,11,21.10
2007,06,27,15,12,21.10
2007,06,27,15,13,21.20
2007,06,27,15,14,21.10
2007,06,27,15,15,21.10
2007,06,27,15,16,21.10
2007,06,27,15,17,21.10
2007,06,27,15,18,21.00
2007,06,27,15,19,21.00
2007,06,27,15,20,20.90
2007,06,27,15,21,20.90
2007,06,27,15,22,20.90
2007,06,27,15,23,20.90
2007,06,27,15,24,21.00
2007,06,27,15,25,21.00
2007,06,27,15,26,21.00
2007,06,27,15,27,21.00
2007,06,27,15,28,21.00
2007,06,27,15,29,21.00
2007,06,27,15,30,21.00
2007,06,27,15,31,21.00
2007,06,27,15,32,21.10
2007,06,27,15,33,21.10
2007,06,27,15,34,21.10
2007,06,27,15,35,21.20
2007,06,27,15,36,21.30
2007,06,27,15,37,21.30
2007,06,27,15,38,21.30
2007,06,27,15,39,21.30
2007,06,27,15,40,21.40
2007,06,27,15,41,21.40
2007,06,27,15,42,21.40
2007,06,27,15,43,21.40
2007,06,27,15,44,21.40
2007,06,27,15,45,21.40
2007,06,27,15,46,21.40
2007,06,27,15,47,21.40
2007,06,27,15,48,21.40
2007,06,27,15,49,21.50
2007,06,27,15,50,21.60
2007,06,27,15,51,21.60
2007,06,27,15,52,21.60
2007,06,27,15,53,21.70
2007,06,27,15,54,21.70
2007,06,27,15,55,21.70
2007,06,27,15,56,21.70
2007,06,27,15,57,21.70
2007,06,27,15,58,21.70
2007,06,27,15,59,21.70
2007,06,27,16,00,21.70
2007,06,27,16,01,21.70
2007,06,27,16,02,21.70
2007,06,27,16,03,21.60
2007,06,27,16,04,21.60
2007,06,27,16,05,21.60
2007,06,27,16,06,21.50
2007,06,27,16,07,21.40
2007,06,27,16,08,21.40
2007,06,27,16,09,21.30
2007,06,27,16,10,21.30
2007,06,27,16,11,21.20
2007,06,27,16,12,21.10
2007,06,27,16,13,21.10
2007,06,27,16,14,21.00
2007,06,27,16,15,21.00
2007,06,27,16,16,21.00
2007,06,27,16,17,20.90
2007,06,27,16,18,20.90
2007,06,27,16,19,20.90
2007,06,27,16,20,20.90
2007,06,27,16,21,20.90
2007,06,27,16,22,20.90
2007,06,27,16,23,20.90
2007,06,27,16,24,20.90
2007,06,27,16,25,20.90
2007,06,27,16,26,20.80
2007,06,27,16,27,20.80
2007,06,27,16,28,20.80
2007,06,27,16,29,20.70
2007,06,27,16,30,20.70
2007,06,27,16,31,20.70
2007,06,27,16,32,20.60
2007,06,27,16,33,20.60
2007,06,27,16,34,20.60
2007,06,27,16,35,20.60
2007,06,27,16,36,20.60
2007,06,27,16,37,20.60
2007,06,27,16,38,20.50
2007,06,27,16,39,20.50
2007,06,27,16,40,20.40
2007,06,27,16,41,20.40
2007,06,27,16,42,20.40
2007,06,27,16,43,20.40
2007,06,27,16,44,20.30
2007,06,27,16,45,20.40
2007,06,27,16,46,20.40
2007,06,27,16,47,20.40
2007,06,27,16,48,20.30
2007,06,27,16,49,20.30
2007,06,27,16,50,20.30
2007,06,27,16,51,20.30
2007,06,27,16,52,20.20
2007,06,27,16,53,20.20
2007,06,27,16,54,20.20
2007,06,27,16,55,20.20
2007,06,27,16,56,20.20
2007,06,27,16,57,20.20
2007,06,27,16,58,20.20
2007,06,27,16,59,20.20
2007,06,27,17,00,20.20
2007,06,27,17,01,20.20
2007,06,27,17,02,20.20
2007,06,27,17,03,20.20
2007,06,27,17,04,20.20
2007,06,27,17,05,20.20
2007,06,27,17,06,20.20
2007,06,27,17,07,20.20
2007,06,27,17,08,20.20
2007,06,27,17,09,20.20
2007,06,27,17,10,20.20
2007,06,27,17,11,20.20
2007,06,27,17,12,20.30
2007,06,27,17,13,20.30
2007,06,27,17,14,20.40
2007,06,27,17,15,20.40
2007,06,27,17,16,20.50
2007,06,27,17,17,20.50
2007,06,27,17,18,20.50
2007,06,27,17,19,20.50
2007,06,27,17,20,20.50
2007,06,27,17,21,20.50
2007,06,27,17,22,20.50
2007,06,27,17,23,20.50
2007,06,27,17,24,20.50
2007,06,27,17,25,20.50